Location: Stendal
(52.5994°N, 11.8400°E)
Time: 21:29:09
(UTC+02:00)

AO-27 - Visible Passes

Search period start: 19 October 2021 00:00
Search period end: 29 October 2021 00:00
Orbit: 785 x 798 km, 98.9° (Epoch: 19 October)

Date Brightness Start Highest point End Pass type
(mag) Time Alt. Az. Time Alt. Az. Time Alt. Az.
19 Oct 7.6 19:03:35 10° SSE 19:08:43 69° ENE 19:13:54 10° NNW visible
19 Oct 10.1 20:44:45 10° SW 20:48:42 22° W 20:52:40 10° NW visible
20 Oct 10.8 07:11:44 10° NE 07:14:42 15° E 07:17:39 10° ESE visible
20 Oct 8.0 18:34:49 10° SE 18:39:40 42° ENE 18:44:33 10° N visible
20 Oct 9.2 20:14:30 10° SSW 20:19:14 36° W 20:24:00 10° NNW visible
21 Oct 8.2 19:44:47 10° S 19:49:54 60° WSW 19:55:03 10° NNW visible
21 Oct 10.9 21:30:13 10° W 21:30:29 10° W 21:30:46 10° W visible
22 Oct 7.6 19:15:30 10° SSE 19:20:41 83° ENE 19:25:55 10° NNW visible
22 Oct 10.3 20:57:23 10° SW 21:00:50 18° W 21:04:19 10° NW visible
23 Oct 7.8 18:46:36 10° SE 18:51:35 51° ENE 18:56:37 10° N visible
23 Oct 9.6 20:26:50 10° SSW 20:31:19 29° W 20:35:50 10° NNW visible
24 Oct 11.3 06:56:06 10° ENE 06:57:13 11° E 06:58:19 10° E visible
24 Oct 8.6 19:56:55 10° S 20:01:56 49° W 20:06:59 10° NNW visible
25 Oct 7.7 19:27:29 10° SSE 19:32:40 82° WSW 19:37:54 10° NNW visible
25 Oct 10.6 21:10:12 10° WSW 21:12:59 14° W 21:15:47 10° NW visible
26 Oct 7.7 18:58:26 10° SSE 19:03:32 62° ENE 19:08:40 10° N visible
26 Oct 9.9 20:39:15 10° SW 20:43:25 24° W 20:47:37 10° NW visible
27 Oct 10.9 07:06:53 10° NE 07:09:24 13° E 07:11:55 10° ESE visible
27 Oct 8.1 18:29:45 10° SE 18:34:31 38° ENE 18:39:18 10° N visible
27 Oct 9.0 20:09:08 10° SSW 20:13:59 40° W 20:18:53 10° NNW visible
28 Oct 8.0 19:39:31 10° S 19:44:40 67° WSW 19:49:53 10° NNW visible
28 Oct 10.7 21:23:26 10° WSW 21:25:09 12° W 21:26:54 10° WNW visible
